OneWeb SL0699

operational
NORAD ID: 61605 Int'l Des: 2024-188 Owner: ONEWEBE Country: UK Constellation: oneweb
LEOCIRCULARPOLARONEWEB_TYPE

关于 OneWeb SL0699

正在加载描述...

实时位置

正在加载3D地球...

即将过境

高度历史

Altitude vs Time

uPlot chart will show altitude changes over time

两行轨道根数

1 61605U 24188M 26033.52088706 .00000647 00000-0 18177-2 0 9994
2 61605 87.8764 63.0986 0001756 115.1203 245.0107 13.10375532 65677
Epoch: Feb 2, 2026 • Age: 19 hours

当前状态

高度 1230.7 km
速度 7.24 km/s
星下点 57.58°N, 174°W
发射日期 Oct 20, 2024
运行时间 1.2 years
类型 internet

技术详情

分类 Payload
质量 148.00 kg
干质量 140.00 kg
总质量 148.00 kg
长度 1.30 m
直径 1.00 m
跨度 5.00 m
形状 Trapezoid+2 pan
制造商 ONEWUS
平台类型 ARROW
阶段状态 In Orbit
所有者/国家 ONEWEBE/UK

大型星座

Loading constellations...